Dewpoint
48 48 48 48 49 48 49 49 49 47 46 45 45 45 45 45 45 45 45 44 45 45
48 49 49 49 49 49 49 49 49 49 47 46 45 45 45 45 45 45 45 45 45 45
47 47 49 50 49 50 50 50 49 49 48 47 46 45 45 45 45 45 46 46 46 46
48 48 48 49 50 50 50 50 49 49 48 47 46 46 45 45 45 44 44 45 46 46
47 48 48 48 49 49 50 50 50 48 48 47 46 45 44 44 44 44 44 45 46 46
41 46 47 48 48 49 49 49 50 50 48 47 47 45 44 43 43 44 44 44 46 46
37 38 44 46 47 47 48 48 49 49 49 48 47 46 45 44 43 43 44 45 46 46
39 39 39 41 44 45 45 46 47 48 49 49 47 46 45 44 43 43 43 44 46 47
38 38 40 41 41 43 44 44 44 45 47 47 47 49 50 46 44 43 42 43 45 46
36 36 36 39 41 41 42 43 43 43 44 45 46 50 51 50 44 43 42 42 43 45
33 33 33 36 39 41 42 42 43 43 43 43 43 49 51 51 47 44 42 42 43 43
33 32 33 35 35 39 41 43 43 44 44 43 43 48 50 50 46 45 44 42 43 43
33 33 33 33 34 37 37 41 44 44 45 46 44 47 49 49 44 43 43 43 42 47
32 33 33 33 33 33 36 40 44 44 45 46 45 45 49 50 45 43 42 42 42 42
Lifted_Index
9 9 10 10 10 11 11 11 11 12 12 13 13 14 14 14 13 12 11 11 10 10
9 9 10 10 10 11 11 11 11 11 12 12 13 13 14 13 13 12 11 10 10 10
9 9 9 10 10 10 10 10 10 10 11 11 12 13 13 13 12 12 11 10 10 9
10 9 9 9 9 10 10 10 10 10 10 11 11 12 13 13 12 11 10 10 9 9
11 10 10 10 9 9 9 9 9 9 10 10 11 11 12 13 12 11 10 9 9 8
12 12 11 10 10 10 9 9 9 9 9 10 10 10 11 12 12 12 11 10 9 9
13 13 12 12 11 10 10 10 10 10 9 9 10 10 10 11 12 12 12 12 11 10
13 13 13 13 12 12 11 11 10 10 10 10 10 10 10 10 11 11 12 12 12 12
13 13 13 13 13 12 12 12 11 11 10 10 10 10 10 10 10 11 11 12 12 12
14 14 13 13 13 13 12 12 12 12 12 11 11 10 10 10 10 11 11 12 12 12
15 15 14 14 13 12 12 12 12 12 12 12 12 11 11 11 11 11 11 11 12 12
16 16 15 15 14 13 13 12 12 12 12 12 12 12 11 11 11 11 11 11 11 12
16 16 16 16 16 15 14 13 12 12 12 12 12 11 11 11 11 11 11 11 11 11
16 16 16 16 16 16 15 14 12 11 11 12 12 11 11 11 11 11 11 11 11 11